| time (UTC) | temp F | wind direction | speed knots | gust knots | rain 1hr in | rain 24hr in | rain mn in | humidity % | barometer mb |
| 20260505004622 | 54 | 0 | 0.0 | 2.6 | 0.04 | 0.04 | 0.04 | 74 | 1010.1 |
| 20260505004122 | 55 | 0 | 0.0 | 2.6 | 0.03 | 0.03 | 0.03 | 75 | 1010.1 |
| 20260505003621 | 55 | 0 | 0.0 | 0.0 | 0.03 | 0.03 | 0.03 | 73 | 1010.2 |
| 20260505003121 | 56 | 0 | 0.0 | 0.0 | 0.03 | 0.03 | 0.03 | 71 | 1010.2 |
| 20260505002621 | 56 | 0 | 0.0 | 3.5 | 0.02 | 0.02 | 0.02 | 68 | 1010.2 |
| 20260505002122 | 57 | 0 | 0.9 | 3.5 | 0.02 | 0.02 | 0.02 | 67 | 1010.1 |
| 20260505001854 | 57 | 0 | 1.7 | 4.3 | 0.01 | 0.01 | 0.01 | 64 | 1010.1 |
| 20260505001351 | 58 | 0 | 2.6 | 5.2 | 0.00 | 0.00 | 0.00 | 59 | 1010.0 |
| 20260505000619 | 58 | 0 | 5.2 | 12.2 | 0.00 | 0.00 | 0.00 | 55 | 1009.9 |
| 20260505000120 | 59 | 0 | 5.2 | 12.2 | 0.00 | 0.00 | 0.00 | 53 | 1009.7 |
| 20260504235618 | 59 | 174 | 6.1 | 13.0 | 0.00 | 0.00 | 0.00 | 52 | 1009.6 |
| 20260504235118 | 60 | 0 | 7.0 | 13.9 | 0.00 | 0.00 | 0.00 | 51 | 1009.3 |
| 20260504234617 | 61 | 0 | 5.2 | 13.9 | 0.00 | 0.00 | 0.00 | 47 | 1009.2 |
| 20260504234117 | 62 | 0 | 3.5 | 9.6 | 0.00 | 0.00 | 0.00 | 43 | 1009.1 |
| 20260504233850 | 62 | 0 | 2.6 | 6.1 | 0.00 | 0.00 | 0.00 | 41 | 1009.0 |
| 20260504233118 | 63 | 0 | 1.7 | 3.5 | 0.00 | 0.00 | 0.00 | 41 | 1009.1 |
| 20260504232618 | 63 | 0 | 1.7 | 4.3 | 0.00 | 0.00 | 0.00 | 40 | 1009.0 |
| 20260504232118 | 63 | 0 | 1.7 | 4.3 | 0.00 | 0.00 | 0.00 | 40 | 1008.9 |
| 20260504231617 | 63 | 0 | 1.7 | 3.5 | 0.00 | 0.00 | 0.00 | 40 | 1008.7 |
| 20260504231117 | 63 | 0 | 2.6 | 5.2 | 0.00 | 0.00 | 0.00 | 39 | 1008.5 |
| 20260504230619 | 63 | 0 | 2.6 | 5.2 | 0.00 | 0.00 | 0.00 | 40 | 1008.5 |
| 20260504230117 | 64 | 0 | 2.6 | 5.2 | 0.00 | 0.00 | 0.00 | 39 | 1008.4 |
| 20260504225617 | 64 | 0 | 2.6 | 6.1 | 0.00 | 0.00 | 0.00 | 39 | 1008.2 |
| 20260504225116 | 64 | 0 | 3.5 | 6.1 | 0.00 | 0.00 | 0.00 | 38 | 1008.2 |
| 20260504224616 | 65 | 0 | 3.5 | 8.7 | 0.00 | 0.00 | 0.00 | 39 | 1008.2 |
| 20260504224115 | 65 | 0 | 5.2 | 9.6 | 0.00 | 0.00 | 0.00 | 40 | 1008.1 |
| 20260504223847 | 66 | 0 | 4.3 | 9.6 | 0.00 | 0.00 | 0.00 | 37 | 1008.2 |
| 20260504223117 | 67 | 0 | 4.3 | 8.7 | 0.00 | 0.00 | 0.00 | 35 | 1008.2 |
| 20260504222846 | 67 | 0 | 4.3 | 8.7 | 0.00 | 0.00 | 0.00 | 36 | 1008.4 |
| 20260504222115 | 67 | 0 | 3.5 | 7.8 | 0.00 | 0.00 | 0.00 | 36 | 1008.3 |
| 20260504222005 | 65 | 0 | 4.3 | 9.6 | 0.00 | 0.00 | 0.00 | 40 | 1008.3 |
| 20260504221853 | 67 | 0 | 4.3 | 7.8 | 0.00 | 0.00 | 0.00 | 40 | 1008.3 |
| 20260504220614 | 64 | 0 | 5.2 | 9.6 | 0.00 | 0.00 | 0.00 | 42 | 1008.4 |
| 20260504220114 | 64 | 0 | 4.3 | 9.6 | 0.00 | 0.00 | 0.00 | 40 | 1008.5 |
| 20260504215614 | 63 | 0 | 4.3 | 12.2 | 0.00 | 0.00 | 0.00 | 42 | 1008.6 |
| 20260504215113 | 63 | 0 | 5.2 | 12.2 | 0.00 | 0.00 | 0.00 | 42 | 1008.6 |
| 20260504214615 | 63 | 0 | 7.0 | 12.2 | 0.00 | 0.00 | 0.00 | 41 | 1008.9 |
| 20260504214346 | 63 | 0 | 8.7 | 13.0 | 0.00 | 0.00 | 0.00 | 40 | 1009.0 |
| 20260504213614 | 63 | 0 | 7.8 | 13.0 | 0.00 | 0.00 | 0.00 | 38 | 1008.9 |
| 20260504213115 | 63 | 0 | 6.1 | 11.3 | 0.00 | 0.00 | 0.00 | 38 | 1008.6 |
| 20260504212613 | 63 | 0 | 6.1 | 11.3 | 0.00 | 0.00 | 0.00 | 39 | 1008.4 |
| 20260504212113 | 63 | 0 | 7.8 | 19.1 | 0.00 | 0.00 | 0.00 | 39 | 1008.3 |
| 20260504211611 | 63 | 0 | 10.4 | 19.1 | 0.00 | 0.00 | 0.00 | 40 | 1008.3 |
| 20260504211112 | 63 | 0 | 12.2 | 21.7 | 0.00 | 0.00 | 0.00 | 41 | 1008.5 |
| 20260504210611 | 64 | 0 | 12.2 | 21.7 | 0.00 | 0.00 | 0.00 | 40 | 1008.7 |
| 20260504210112 | 64 | 0 | 10.4 | 19.1 | 0.00 | 0.00 | 0.00 | 39 | 1008.6 |
| 20260504205610 | 64 | 0 | 7.8 | 14.8 | 0.00 | 0.00 | 0.00 | 39 | 1008.7 |
| 20260504205342 | 64 | 0 | 7.8 | 14.8 | 0.00 | 0.00 | 0.00 | 38 | 1008.7 |
| 20260504204842 | 64 | 0 | 6.1 | 11.3 | 0.00 | 0.00 | 0.00 | 39 | 1008.9 |
| 20260504204109 | 63 | 0 | 6.1 | 11.3 | 0.00 | 0.00 | 0.00 | 38 | 1008.7 |
| 20260504203609 | 63 | 0 | 6.1 | 11.3 | 0.00 | 0.00 | 0.00 | 38 | 1008.7 |
| 20260504203108 | 63 | 0 | 6.1 | 12.2 | 0.00 | 0.00 | 0.00 | 38 | 1008.7 |
| 20260504202608 | 63 | 0 | 7.0 | 13.0 | 0.00 | 0.00 | 0.00 | 39 | 1009.1 |
| 20260504202339 | 63 | 0 | 7.8 | 13.0 | 0.00 | 0.00 | 0.00 | 40 | 1009.3 |
| 20260504201610 | 63 | 0 | 7.8 | 13.9 | 0.00 | 0.00 | 0.00 | 41 | 1009.4 |
| 20260504201110 | 63 | 0 | 8.7 | 16.5 | 0.00 | 0.00 | 0.00 | 38 | 1009.6 |
| 20260504200609 | 64 | 0 | 8.7 | 16.5 | 0.00 | 0.00 | 0.00 | 38 | 1009.6 |
| 20260504200110 | 64 | 0 | 9.6 | 16.5 | 0.00 | 0.00 | 0.00 | 38 | 1009.6 |
| 20260504195609 | 64 | 0 | 7.8 | 16.5 | 0.00 | 0.00 | 0.00 | 35 | 1009.3 |
| 20260504195109 | 64 | 0 | 7.8 | 15.6 | 0.00 | 0.00 | 0.00 | 38 | 1009.3 |
| 20260504194607 | 65 | 0 | 7.8 | 15.6 | 0.00 | 0.00 | 0.00 | 37 | 1009.2 |
| 20260504194107 | 65 | 0 | 7.0 | 13.9 | 0.00 | 0.00 | 0.00 | 38 | 1008.9 |
| 20260504193607 | 65 | 0 | 6.1 | 12.2 | 0.00 | 0.00 | 0.00 | 32 | 1008.4 |
| 20260504193113 | 66 | 0 | 7.0 | 13.9 | 0.00 | 0.00 | 0.00 | 32 | 1008.2 |
| 20260504193108 | 66 | 0 | 6.1 | 12.2 | 0.00 | 0.00 | 0.00 | 32 | 1008.3 |
| 20260504192108 | 66 | 0 | 7.0 | 14.8 | 0.00 | 0.00 | 0.00 | 32 | 1008.3 |
| 20260504191609 | 66 | 0 | 4.3 | 14.8 | 0.00 | 0.00 | 0.00 | 30 | 1008.4 |
| 20260504191109 | 67 | 0 | 5.2 | 12.2 | 0.00 | 0.00 | 0.00 | 30 | 1008.2 |
| 20260504190838 | 67 | 0 | 7.0 | 13.0 | 0.00 | 0.00 | 0.00 | 29 | 1008.1 |
| 20260504190108 | 68 | 0 | 6.1 | 14.8 | 0.00 | 0.00 | 0.00 | 28 | 1008.1 |
| 20260504185607 | 69 | 0 | 4.3 | 14.8 | 0.00 | 0.00 | 0.00 | 26 | 1007.9 |
| 20260504185107 | 70 | 0 | 3.5 | 6.1 | 0.00 | 0.00 | 0.00 | 27 | 1007.5 |
| 20260504184608 | 70 | 0 | 2.6 | 6.1 | 0.00 | 0.00 | 0.00 | 26 | 1007.6 |
| 20260504184108 | 70 | 0 | 2.6 | 7.8 | 0.00 | 0.00 | 0.00 | 26 | 1007.6 |
| 20260504183606 | 70 | 0 | 5.2 | 12.2 | 0.00 | 0.00 | 0.00 | 24 | 1007.6 |
| 20260504183337 | 71 | 0 | 5.2 | 12.2 | 0.00 | 0.00 | 0.00 | 25 | 1007.5 |
| 20260504182604 | 72 | 0 | 5.2 | 11.3 | 0.00 | 0.00 | 0.00 | 25 | 1007.6 |
| 20260504182110 | 73 | 0 | 2.6 | 8.7 | 0.00 | 0.00 | 0.00 | 23 | 1007.6 |
| 20260504182105 | 72 | 0 | 4.3 | 11.3 | 0.00 | 0.00 | 0.00 | 24 | 1007.6 |
| 20260504181106 | 73 | 0 | 4.3 | 12.2 | 0.00 | 0.00 | 0.00 | 22 | 1007.7 |
| 20260504180604 | 73 | 0 | 6.1 | 19.1 | 0.00 | 0.00 | 0.00 | 23 | 1007.6 |
| 20260504180110 | 73 | 0 | 6.1 | 12.2 | 0.00 | 0.00 | 0.00 | 23 | 1007.6 |
| 20260504180106 | 73 | 0 | 6.1 | 19.1 | 0.00 | 0.00 | 0.00 | 22 | 1007.2 |
| 20260504175106 | 74 | 0 | 7.0 | 13.9 | 0.00 | 0.00 | 0.00 | 23 | 1007.6 |
| 20260504174605 | 73 | 0 | 7.8 | 13.9 | 0.00 | 0.00 | 0.00 | 23 | 1007.7 |
| 20260504174105 | 73 | 0 | 7.8 | 13.0 | 0.00 | 0.00 | 0.00 | 23 | 1007.7 |
| 20260504173605 | 73 | 0 | 7.8 | 15.6 | 0.00 | 0.00 | 0.00 | 23 | 1007.7 |
| 20260504173105 | 73 | 0 | 7.0 | 15.6 | 0.00 | 0.00 | 0.00 | 23 | 1007.7 |
| 20260504172607 | 73 | 0 | 7.0 | 12.2 | 0.00 | 0.00 | 0.00 | 23 | 1007.8 |
| 20260504172338 | 73 | 0 | 6.1 | 12.2 | 0.00 | 0.00 | 0.00 | 24 | 1007.8 |
| 20260504171604 | 72 | 0 | 5.2 | 12.2 | 0.00 | 0.00 | 0.00 | 26 | 1007.8 |
| 20260504171104 | 72 | 0 | 5.2 | 12.2 | 0.00 | 0.00 | 0.00 | 27 | 1007.9 |
| 20260504170835 | 72 | 0 | 3.5 | 10.4 | 0.00 | 0.00 | 0.00 | 24 | 1007.9 |
| 20260504170104 | 72 | 0 | 3.5 | 7.8 | 0.00 | 0.00 | 0.00 | 25 | 1007.9 |
| 20260504151103 | 56 | 0 | 0.9 | 3.5 | 0.00 | 0.00 | 0.00 | 48 | 1008.9 |
| 20260504150601 | 55 | 282 | 0.0 | 1.7 | 0.00 | 0.00 | 0.00 | 45 | 1008.9 |
| 20260504141101 | 48 | 287 | 1.7 | 3.5 | 0.00 | 0.00 | 0.00 | 57 | 1009.3 |
| 20260504140602 | 47 | 297 | 0.9 | 2.6 | 0.00 | 0.00 | 0.00 | 57 | 1009.3 |
| 20260504130558 | 43 | 0 | 0.9 | 1.7 | 0.00 | 0.00 | 0.00 | 66 | 1009.3 |
| 20260504120317 | 41 | 0 | 0.9 | 2.6 | 0.00 | 0.00 | 0.00 | 66 | 1009.1 |
| 20260504100521 | 43 | 284 | 0.0 | 1.7 | 0.00 | 0.00 | 0.00 | 62 | 1009.6 |
| 20260504081517 | 46 | 297 | 0.9 | 1.7 | 0.00 | 0.00 | 0.00 | 55 | 1010.5 |
| 20260504081014 | 46 | 0 | 0.9 | 1.7 | 0.00 | 0.00 | 0.00 | 55 | 1010.5 |
| 20260504080515 | 46 | 0 | 0.9 | 1.7 | 0.00 | 0.00 | 0.00 | 56 | 1010.6 |
| 20260504050501 | 56 | 0 | 3.5 | 6.1 | 0.00 | 0.00 | 0.00 | 38 | 1011.4 |
| 20260504045959 | 57 | 0 | 3.5 | 6.1 | 0.00 | 0.00 | 0.00 | 39 | 1011.4 |
| 20260504045459 | 58 | 0 | 2.6 | 5.2 | 0.00 | 0.00 | 0.00 | 39 | 1011.5 |
| 20260504044959 | 58 | 0 | 2.6 | 5.2 | 0.00 | 0.00 | 0.00 | 37 | 1011.5 |
| 20260504044457 | 58 | 0 | 3.5 | 8.7 | 0.00 | 0.00 | 0.00 | 37 | 1011.4 |
| 20260504043957 | 59 | 0 | 2.6 | 8.7 | 0.00 | 0.00 | 0.00 | 36 | 1011.3 |
| 20260504043458 | 59 | 0 | 1.7 | 7.8 | 0.00 | 0.00 | 0.00 | 36 | 1011.5 |
| 20260504042959 | 59 | 0 | 2.6 | 7.8 | 0.00 | 0.00 | 0.00 | 36 | 1011.4 |
| 20260504042729 | 60 | 0 | 3.5 | 8.7 | 0.00 | 0.00 | 0.00 | 36 | 1011.4 |
| 20260504041959 | 60 | 0 | 4.3 | 10.4 | 0.00 | 0.00 | 0.00 | 35 | 1011.2 |
| 20260504041459 | 61 | 0 | 6.1 | 14.8 | 0.00 | 0.00 | 0.00 | 34 | 1010.9 |
| 20260504041229 | 61 | 0 | 6.1 | 14.8 | 0.00 | 0.00 | 0.00 | 33 | 1011.1 |
| 20260504040458 | 61 | 0 | 7.0 | 13.0 | 0.00 | 0.00 | 0.00 | 32 | 1011.3 |
| 20260504035955 | 61 | 0 | 7.0 | 13.0 | 0.00 | 0.00 | 0.00 | 33 | 1011.4 |
| 20260504035456 | 61 | 0 | 6.1 | 13.0 | 0.00 | 0.00 | 0.00 | 32 | 1011.2 |
| 20260504034956 | 61 | 0 | 5.2 | 13.0 | 0.00 | 0.00 | 0.00 | 33 | 1011.3 |
| 20260504034500 | 62 | 0 | 6.1 | 13.0 | 0.00 | 0.00 | 0.00 | 32 | 1011.2 |
| 20260504034455 | 62 | 0 | 6.1 | 13.0 | 0.00 | 0.00 | 0.00 | 32 | 1011.3 |
| 20260504033456 | 62 | 0 | 5.2 | 13.0 | 0.00 | 0.00 | 0.00 | 31 | 1011.2 |
| 20260504032957 | 62 | 0 | 6.1 | 11.3 | 0.00 | 0.00 | 0.00 | 30 | 1010.9 |
| 20260504032457 | 62 | 0 | 6.1 | 12.2 | 0.00 | 0.00 | 0.00 | 28 | 1010.7 |
| 20260504031955 | 62 | 0 | 5.2 | 12.2 | 0.00 | 0.00 | 0.00 | 29 | 1010.7 |
| 20260504031455 | 61 | 0 | 3.5 | 7.0 | 0.00 | 0.00 | 0.00 | 31 | 1010.7 |
| 20260504030955 | 61 | 0 | 2.6 | 7.0 | 0.00 | 0.00 | 0.00 | 33 | 1010.6 |
| 20260504030456 | 62 | 0 | 0.9 | 5.2 | 0.00 | 0.00 | 0.00 | 35 | 1010.6 |
| 20260504025957 | 62 | 0 | 0.9 | 5.2 | 0.00 | 0.00 | 0.00 | 34 | 1010.4 |
| 20260504025456 | 62 | 0 | 1.7 | 5.2 | 0.00 | 0.00 | 0.00 | 34 | 1010.4 |
| 20260504024955 | 63 | 0 | 0.9 | 4.3 | 0.00 | 0.00 | 0.00 | 35 | 1010.2 |
| 20260504024456 | 63 | 0 | 0.0 | 1.7 | 0.00 | 0.00 | 0.00 | 33 | 1010.0 |
| 20260504023955 | 64 | 0 | 0.0 | 1.7 | 0.00 | 0.00 | 0.00 | 34 | 1010.0 |
| 20260504023455 | 64 | 0 | 0.9 | 3.5 | 0.00 | 0.00 | 0.00 | 33 | 1010.1 |
| 20260504022953 | 65 | 0 | 1.7 | 3.5 | 0.00 | 0.00 | 0.00 | 34 | 1010.1 |
| 20260504022452 | 65 | 0 | 0.9 | 2.6 | 0.00 | 0.00 | 0.00 | 30 | 1010.1 |
| 20260504021953 | 65 | 0 | 0.9 | 3.5 | 0.00 | 0.00 | 0.00 | 29 | 1010.0 |
| 20260504021454 | 66 | 0 | 0.9 | 4.3 | 0.00 | 0.00 | 0.00 | 30 | 1010.1 |
| 20260504020954 | 66 | 0 | 0.9 | 4.3 | 0.00 | 0.00 | 0.00 | 32 | 1010.1 |
| 20260504020454 | 67 | 0 | 0.9 | 4.3 | 0.00 | 0.00 | 0.00 | 28 | 1010.0 |
| 20260504020224 | 67 | 0 | 1.7 | 4.3 | 0.00 | 0.00 | 0.00 | 29 | 1010.0 |
| 20260504015724 | 67 | 0 | 0.9 | 3.5 | 0.00 | 0.00 | 0.00 | 27 | 1009.8 |
| 20260504015222 | 67 | 0 | 0.0 | 0.0 | 0.00 | 0.00 | 0.00 | 28 | 1010.0 |
| 20260504015108 | 67 | 0 | 0.0 | 1.7 | 0.00 | 0.00 | 0.00 | 29 | 1010.0 |
| 20260504013952 | 68 | 0 | 0.9 | 2.6 | 0.00 | 0.00 | 0.00 | 26 | 1009.9 |
| 20260504013449 | 68 | 0 | 1.7 | 2.6 | 0.00 | 0.00 | 0.00 | 27 | 1009.9 |
| 20260504012950 | 68 | 0 | 0.9 | 2.6 | 0.00 | 0.00 | 0.00 | 26 | 1009.9 |
| 20260504012449 | 68 | 0 | 1.7 | 4.3 | 0.00 | 0.00 | 0.00 | 26 | 1010.0 |
| 20260504011948 | 68 | 0 | 2.6 | 4.3 | 0.00 | 0.00 | 0.00 | 26 | 1010.0 |
| 20260504011448 | 69 | 0 | 1.7 | 4.3 | 0.00 | 0.00 | 0.00 | 25 | 1009.9 |
| 20260504010950 | 69 | 0 | 1.7 | 3.5 | 0.00 | 0.00 | 0.00 | 25 | 1010.0 |
| 20260504010449 | 69 | 0 | 0.9 | 3.5 | 0.00 | 0.00 | 0.00 | 25 | 1010.0 |
| 20260504005949 | 69 | 0 | 0.0 | 2.6 | 0.00 | 0.00 | 0.00 | 24 | 1010.1 |
| 20260504005449 | 70 | 0 | 0.9 | 4.3 | 0.00 | 0.00 | 0.00 | 24 | 1010.1 |
| 20260504004950 | 70 | 200 | 1.7 | 4.3 | 0.00 | 0.00 | 0.00 | 23 | 1010.1 |